Hourly Data Report for June 20, 2001

SHERBROOKE A
QUEBEC

45°26'00.000" N
71°41'00.000" W
241.40 m
7028124
71610
YSC

Download Data

Hourly Data (June 2001)
Hourly Data Report for June 20, 2001
TIME
LST
Temp Definition
°C
Dew Point Definition
°C
Rel Hum Definition
%
Precip. Amount Definition
mm

Wind Dir Definition
10's deg

Wind Spd Definition
km/h
Visibility Definition
km
Stn Press Definition
kPa
Hmdx Definition


Wind Chill Definition


Weather Definition


00:00 25.2 15.7 56   25 19 15.0 98.64 30    
01:00 24.9 16.3 59   26 19 15.0 98.67 30    
02:00 23.9 16.4 63   25 15 15.0 98.73 29    
03:00 22.9 15.5 63   27 15 15.0 98.78 27    
04:00 20.8 15.2 70   23 9 15.0 98.85 25    
05:00 19.6 14.8 74   25 11 15.0 98.92      
06:00 20.6 14.7 69   26 17 15.0 99.05      
07:00 19.8 13.9 69   27 19 24.1 99.07     Mostly Cloudy
08:00 19.8 12.1 61   28 26 24.1 99.16     Cloudy
09:00 19.4 11.6 61   28 17 24.1 99.11     Cloudy
10:00 19.7 11.0 57   31 15 24.1 99.17     Cloudy
11:00 21.0 12.1 57   29 13 24.1 99.14     Mostly Cloudy
12:00 21.8 12.1 54   27 9 24.1 99.07     Mostly Cloudy
13:00 20.8 11.9 57   27 20 24.1 99.14     Cloudy
14:00 19.9 11.8 60   27 11 24.1 99.15     Rain
15:00 19.1 13.1 68   25 11 24.1 99.19     Cloudy
16:00 19.8 13.3 66   26 11 24.1 99.19     Mostly Cloudy
17:00 20.4 12.1 59   25 13 15.0 99.17      
18:00 19.5 11.9 61   28 13 15.0 99.18      
19:00 16.7 13.1 79   26 4 15.0 99.22      
20:00 14.1 11.7 85     0 15.0 99.24      
21:00 11.5 10.4 93   12 9 15.0 99.33      
22:00 11.4 10.8 96   8 4 15.0 99.40      
23:00 9.8 9.6 99   7 6 1.0 99.39      

Notes on Data Quality.

Legend

  • E = Estimated
  • M = Missing
  • NA = Not Available*
  • [empty] = Indicates an unobserved value
Date modified: